[Date Prev][Date Next][Thread Prev][Thread Next] - [Date Index][Thread Index][Author Index]
2 Line ISS Keps 12-14
- Subject: [sarex] 2 Line ISS Keps 12-14
- From: "Dave Larsen PhD" <doc@xxxxxxxxxxx>
- Date: Mon, 13 Dec 2004 19:06:24 -0800
ISS
1 25544U 98067A 04348.86196832 .00016486 00000-0 13153-3 0 3571
2 25544 51.6382 128.6320 0004518 105.6978 30.7451 15.71293810346542
----
Via the sarex mailing list at AMSAT.ORG courtesy of AMSAT-NA.
To unsubscribe, send "unsubscribe sarex" to Majordomo@amsat.org
AMSAT Home